Regional Weather Roundup
Issued by NWS

Home | Current Version | Previous Version | Graphics & Text | Print | Product List | Glossary On
Versions: 1 2 3 4 5 6 7 8 9 10 11 12 13 14 15 16 17 18 19 20 21 22 23 24 25 26 27 28 29 30 31 32 33 34 35 36 37 38 39 40 41 42 43 44 45 46 47 48 49 50
811
ASUS43 KDTX 192210
RWRMI
MICHIGAN HOURLY REGIONAL WEATHER ROUNDUP
NATIONAL WEATHER SERVICE DETROIT/PONTIAC MI
600 PM EDT THU OCT 19 2017

NOTE: "FAIR" INDICATES FEW OR NO CLOUDS BELOW 12,000 FEET WITH NO
SIGNIFICANT WEATHER AND/OR OBSTRUCTION TO VISIBILITY.

MIZ047>049-052>055-059>063-066>070-074>076-081>083-192300-
SOUTHEAST LOWER MICHIGAN

CITY           SKY/WX    TMP DP  RH WIND       PRES   REMARKS
ADRIAN         CLEAR     67  34  29 NW8       30.14S
ALMA           CLOUDY    64  19  17 W15       30.12R
ANN ARBOR      CLEAR     65  34  31 W10       30.12R
BAD AXE        CLOUDY    63  25  23 W8G16     30.09R
CARO           CLEAR     63  24  22 SW9       30.09R
DETROIT CITY   CLEAR     68  32  26 W9        30.11R
DETROIT        MOCLDY    67  31  26 W12       30.13R
FLINT          CLEAR     63  27  25 W14       30.12R
GROSSE ILE     CLEAR     67  35  30 W8G16     30.10R
HILLSDALE      CLEAR     64  28  25 W8        30.15S
HOWELL         CLEAR     64  24  22 W7        30.13R

CITY           SKY/WX    TMP DP  RH WIND       PRES   REMARKS
JACKSON        CLOUDY    65  26  23 W8        30.15R
LAMBERTVILLE   CLEAR     70  35  28 W8        30.12S
LANSING        CLOUDY    64  28  25 W10       30.15R
LAPEER         FAIR      63  26  24 W8        30.11R
MASON          CLOUDY    66  29  24 W10G16    30.14R
MONROE         CLEAR     70  35  27 W10       30.11R
MT. CLEMENS    MOCLDY    66  33  29 W8        30.09R
PONTIAC        MOCLDY    64  29  26 W12       30.11R
PORT HOPE        N/A     63  30  28 W5        30.05R
PORT HURON     CLEAR     66  30  26 W3        30.09S
TRI CITIES     CLOUDY    63  23  21 W13       30.11R
MIDLAND        FAIR      65  26  23 W5        30.09R
TROY           CLEAR     68  29  23 W9        30.13R
SAGINAW HB     CLEAR     63  27  25 W8G17     30.10R
$$
MIZ043>046-050>051-056>058-064>065-071>073-077>080-192300-
SOUTHWEST LOWER MICHIGAN

CITY           SKY/WX    TMP DP  RH WIND       PRES   REMARKS
BATTLE CREEK   CLEAR     63  26  24 W9        30.17R
BENTON HARBOR  CLEAR     59  40  49 W3        30.18S
BIG RAPIDS     CLOUDY    62  23  22 W7        30.12S
COLDWATER      CLEAR     65  24  20 W8        30.16R
FREMONT        FAIR      61  30  31 W6        30.13F
HOLLAND        CLEAR     61  34  36 W7        30.17F
GRAND RAPIDS   MOCLDY    62  30  29 W10       30.15S
IONIA          FAIR      63  32  30 W13       30.13S
KALAMAZOO      CLEAR     63  23  21 W9        30.18R
LUDINGTON      CLEAR     59  40  48 SW7       30.12S
MARSHALL       CLEAR     63  26  24 W7        30.16R
MOUNT PLEASANT CLOUDY    66  24  20 W8        30.10S
MUSKEGON       PTCLDY    60  38  43 SW9       30.15F
SOUTH HAVEN    CLEAR     61  40  45 W5        30.18S
$$
MIZ016>042-192300-
NORTHERN LOWER MICHIGAN

CITY           SKY/WX    TMP DP  RH WIND       PRES   REMARKS
ALPENA         CLEAR     62  27  26 W9        30.04R
BEAVER ISLAND  CLEAR     59  42  52 SW12G20   30.04S
BELLAIRE       CLOUDY    60  35  39 SW6       30.08S
CADILLAC       CLOUDY    60  22  22 W12       30.11R
CHARLEVOIX     CLEAR     59  37  44 SW12G22   30.09S
FRANKFORT      CLEAR     61  44  53 SW6       30.10S
GAYLORD        CLEAR     56  29  35 W8G17     30.07R
GRAYLING       CLEAR     58  22  24 W8G16     30.10R
HARBOR SPRINGS PTCLDY    58  40  50 W9G18     30.05S
HOUGHTON LAKE  CLOUDY    59  26  28 W8        30.09R
MANISTEE       CLOUDY    61  33  35 SW6       30.11S
OSCODA         PTCLDY    63  21  20 W13       30.04R
PELLSTON       CLEAR     59  34  39 W14G21    30.04S
ROGERS CITY    CLEAR     59  34  38 W8G16     30.04R
TRAVERSE CITY  MOCLDY    62  32  32 W10G17    30.08R
$$
MIZ007>008-015-192300-
EASTERN UPPER MICHIGAN

CITY           SKY/WX    TMP DP  RH WIND       PRES   REMARKS
KINROSS        PTCLDY    60  24  25 W13       30.00R
MACKINAC ISLAN CLEAR     59  36  42 W12G25    30.02R
NEWBERRY       CLEAR     59  17  19 W9        30.01R
S. S. MARIE    PTCLDY    59  30  33 W14G22    29.98R
MUNISING         N/A     58  43  57 E3        30.01R
$$
MIZ004>006-011>014-085-192300-
CENTRAL UPPER MICHIGAN

CITY           SKY/WX    TMP DP  RH WIND       PRES   REMARKS
MANISTIQUE     CLEAR     57  37  46 SW10G16   30.02S
ESCANABA       CLEAR     65  29  25 W3        30.03S
MENOMINEE      CLEAR     67  31  26 SW5       30.06S
SAWYER-GWINN   CLEAR     63  27  25 W8        30.02S
$$
MIZ001>003-009>011-084-192300-
WESTERN UPPER MICHIGAN

CITY           SKY/WX    TMP DP  RH WIND       PRES   REMARKS
IRON MOUNTAIN  CLEAR     65  27  23 VRB6      30.02S
HOUGHTON       PTCLDY    60  27  28 W8        29.96F
COPPER HARBOR    N/A     58  25  28 W9        29.95S
IRONWOOD       PTCLDY    67  31  26 S12G20    29.97F
$$

ABBREVIATIONS USED IN REMARKS
   TC - TEMPERATURE IN CELSIUS
  WCI - WIND CHILL INDEX
   HX - HEAT INDEX
  VSB - VISIBILITY





USA.gov is the U.S. government's official web portal to all federal, state and local government web resources and services.